BIARBIEG

Guest
Details From BIAR - Akureyri
To BIEG - Egilsstadir
Flight Number -
Tags generated
Created
Modified
Stats Distance 94 nm / 175 km
Max Altitude 4,200 ft / 1,280 m
Waypoints 3
Social Downloads 1
Likes 0
Share VATSIM

Download

Looking for another format? Having issues loading an existing format? Contact us
Advertisement - Login to hide

Notes

Basic altitude profile: - Ascent Rate: 2500ft/min - Ascent Speed: 250kts - Cruise Altitude: 35000ft - Cruise Speed: 420kts - Descent Rate: 1500ft/min - Descent Speed: 250kts

Route

BIAR FELLI BIEG

ID Type Via Altitude Latitude Longitude Leg Dist Tot Dist Heading (true) Name
O BIAR APT - 0 ft / 0 m 65.65657˚ -18.07197˚ - 0 nm - Akureyri
FELLI FIX - 4,200 ft / 1,280 m 65.35417˚ -15.17389˚ 74 nm 74 nm 103° / 105° -
O BIEG APT - 0 ft / 0 m 65.28283˚ -14.40206˚ 19 nm 94 nm 102° / 103° Egilsstadir

Altitude Profile

Advertisement - Login to hide

BIAR

Details ICAO BIAR (AEY)
Name Akureyri
Region Iceland
Timezone Unknown (UTC+0.0)
Stats Elevation 5 ft / 2 m (AMSL)
Location 65.656574° -18.071975°
Runways 1
Magnetic Variation 12.291° W

METAR

BIAR 182200Z 21018KT CAVOK 10/05 Q0982

Decode

TAF

TAF BIAR 181959Z 1821/1921 18025G35KT 9999 FEW030 BKN050 TX07/1821Z TN02/1915Z TEMPO 1821/1901 RA SCT020 BKN030 BECMG 1905/1908 21025G40KT

Decode

Departure Runways

ID Width Length Bearing (true) Bearing (mag) Surface Threshold Offset Overrun Length
01 148 ft / 45 m 7,855 ft / 2,394 m 355.54° 7.83° Asphalt 0 ft / 0 m 0 ft / 0 m
19 148 ft / 45 m 7,855 ft / 2,394 m 175.54° 187.83° Asphalt 0 ft / 0 m 0 ft / 0 m

BIEG

Details ICAO BIEG (EGS)
Name Egilsstadir
Region Iceland
Timezone Atlantic/Reykjavik (UTC+0.0)
Stats Elevation 76 ft / 23 m (AMSL)
Location 65.282830° -14.402058°
Runways 1
Magnetic Variation 10.111° W

METAR

BIEG 182200Z 18016KT 9999 VCSH SCT030 BKN050 08/04 Q0986 R04/290095

Decode

TAF

TAF BIEG 181959Z 1821/1921 21020G30KT 9999 FEW030 BKN050 TX10/1823Z TN02/1909Z TEMPO 1821/1901 21030G40KT BECMG 1917/1920 20015KT

Decode

Destination Runways

ID Width Length Bearing (true) Bearing (mag) Surface Threshold Offset Overrun Length
04 148 ft / 45 m 6,569 ft / 2,002 m 25.32° 35.43° Asphalt 492 ft / 150 m 0 ft / 0 m
22 148 ft / 45 m 6,569 ft / 2,002 m 205.34° 215.45° Asphalt 0 ft / 0 m 197 ft / 60 m

Approach Navaids

Runway Type Ident Frequency Range Bearing (true) Bearing (mag) Slope Elevation
04 Localiser IES 109.30 MHz 18 nm / 33 km 25.26° 35.37° - 76 ft / 23 m (AMSL)
04 Glidescope IES 109.30 MHz 10 nm / 19 km 25.26° 35.37° 3.00° 76 ft / 23 m (AMSL)
04 DME IES 109.30 MHz 18 nm / 33 km - - - 100 ft / 30 m (AMSL)

Popular Alternatives